Tracking 29790 objects as of 12-Oct-2024
HD Live streaming from Space Station
objects crossing your sky now

THOR ABLESTAR DEB

Track THOR ABLESTAR DEB now!
10-day predictions


NORAD ID: 3125
Int'l Code: 1961-015HY
Perigee: 933.0 km
Apogee: 1,399.1 km
Inclination: 67.6 °
Period: 108.5 minutes
Semi major axis: 7537 km
RCS: 0.0125 m2 (small)
Launch date: June 29, 1961
Source: United States (US)
Launch site: AIR FORCE EASTERN TEST RANGE (AFETR)

Note: This is SATELLITE DEBRIS
Your satellite tracking list
Your tracking list is empty




NASA's NSSDC Master Catalog

Two Line Element Set (TLE):
1 03125U 61015HY  24285.62992083  .00002114  00000-0  37688-2 0  9996
2 03125  67.5543 117.6471 0309162 153.7783 271.4526 13.26783141 66101
Source of the keplerian elements: AFSPC